| time (UTC) | temp F | wind direction | speed MPH | gust MPH | rain 1hr in | rain 24hr in | rain mn in | humidity % | barometer mb |
| 20260902145713 | 82 | 228 | 3.0 | 3.0 | 0.00 | 0.00 | 0.00 | 72 | 1026.1 |
| 20260902145212 | 82 | 228 | 3.0 | 3.0 | 0.00 | 0.00 | 0.00 | 72 | 1026.1 |
| 20260902144709 | 81 | 234 | 4.0 | 6.0 | 0.00 | 0.00 | 0.00 | 70 | 1026.0 |
| 20260902144204 | 81 | 220 | 3.0 | 4.0 | 0.00 | 0.00 | 0.00 | 71 | 1025.9 |
| 20260902143659 | 81 | 230 | 4.0 | 6.0 | 0.00 | 0.00 | 0.00 | 71 | 1026.0 |
| 20260902143154 | 80 | 226 | 3.0 | 7.0 | 0.00 | 0.00 | 0.00 | 71 | 1026.0 |
| 20260902142650 | 81 | 224 | 3.0 | 7.0 | 0.00 | 0.00 | 0.00 | 71 | 1026.1 |
| 20260902142146 | 81 | 239 | 3.0 | 4.0 | 0.00 | 0.00 | 0.00 | 72 | 1026.0 |
| 20260902141645 | 81 | 249 | 3.0 | 6.0 | 0.00 | 0.00 | 0.00 | 74 | 1026.0 |
| 20260902141141 | 80 | 222 | 2.0 | 4.0 | 0.00 | 0.00 | 0.00 | 73 | 1026.0 |
| 20260902140636 | 80 | 239 | 4.0 | 6.0 | 0.00 | 0.00 | 0.00 | 74 | 1026.0 |
| 20260902140131 | 80 | 238 | 2.0 | 2.0 | 0.00 | 0.00 | 0.00 | 73 | 1025.9 |
| 20260902135630 | 80 | 230 | 3.0 | 4.0 | 0.00 | 0.00 | 0.00 | 74 | 1026.1 |
| 20260902135126 | 80 | 238 | 3.0 | 3.0 | 0.00 | 0.00 | 0.00 | 74 | 1026.3 |
| 20260902134621 | 80 | 228 | 2.0 | 3.0 | 0.00 | 0.00 | 0.00 | 75 | 1026.3 |
| 20260902134121 | 80 | 232 | 2.0 | 3.0 | 0.00 | 0.00 | 0.00 | 75 | 1026.0 |
| 20260902133622 | 79 | 232 | 0.0 | 3.0 | 0.00 | 0.00 | 0.00 | 75 | 1025.9 |
| 20260902133122 | 79 | 234 | 2.0 | 3.0 | 0.00 | 0.00 | 0.00 | 78 | 1026.1 |
| 20260902132617 | 79 | 232 | 1.0 | 2.0 | 0.00 | 0.00 | 0.00 | 77 | 1026.1 |
| 20260902132112 | 78 | 233 | 1.0 | 2.0 | 0.00 | 0.00 | 0.00 | 80 | 1026.1 |
| 20260902131608 | 77 | 224 | 3.0 | 3.0 | 0.00 | 0.00 | 0.00 | 77 | 1026.1 |
| 20260902131103 | 77 | 238 | 2.0 | 3.0 | 0.00 | 0.00 | 0.00 | 79 | 1025.9 |
| 20260902130554 | 77 | 224 | 3.0 | 4.0 | 0.00 | 0.00 | 0.00 | 80 | 1026.0 |
| 20260902130049 | 76 | 230 | 2.0 | 3.0 | 0.00 | 0.00 | 0.00 | 82 | 1026.0 |
| 20260902125544 | 0 | 217 | 1.0 | 3.0 | 0.00 | 0.00 | 0.00 | 1025.9 | |
| 20260902125039 | 0 | 224 | 2.0 | 3.0 | 0.00 | 0.00 | 0.00 | 1025.8 | |
| 20260902124536 | 0 | 211 | 2.0 | 2.0 | 0.00 | 0.00 | 0.00 | 1025.9 | |
| 20260902124031 | 0 | 202 | 3.0 | 4.0 | 0.00 | 0.00 | 0.00 | 1025.6 | |
| 20260902123526 | 0 | 181 | 0.0 | 0.0 | 0.00 | 0.00 | 0.00 | 1025.8 | |
| 20260902123020 | 0 | 178 | 0.0 | 0.0 | 0.00 | 0.00 | 0.00 | 1025.6 | |
| 20260902122515 | 0 | 178 | 0.0 | 0.0 | 0.00 | 0.00 | 0.00 | 1025.7 | |
| 20260902122010 | 0 | 179 | 0.0 | 0.0 | 0.00 | 0.00 | 0.00 | 1025.9 | |
| 20260902121505 | 0 | 180 | 0.0 | 0.0 | 0.00 | 0.00 | 0.00 | 1025.7 | |
| 20260902121000 | 0 | 179 | 0.0 | 2.0 | 0.00 | 0.00 | 0.00 | 1025.7 | |
| 20260902120456 | 0 | 178 | 2.0 | 3.0 | 0.00 | 0.00 | 0.00 | 1025.5 | |
| 20260902115956 | 0 | 178 | 2.0 | 2.0 | 0.00 | 0.00 | 0.00 | 1025.7 | |
| 20260902115452 | 0 | 177 | 2.0 | 3.0 | 0.00 | 0.00 | 0.00 | 1025.5 | |
| 20260902114949 | 0 | 174 | 2.0 | 3.0 | 0.00 | 0.00 | 0.00 | 1025.5 | |
| 20260902114444 | 0 | 174 | 2.0 | 3.0 | 0.00 | 0.00 | 0.00 | 1025.6 | |
| 20260902113939 | 0 | 173 | 2.0 | 3.0 | 0.00 | 0.00 | 0.00 | 1025.5 | |
| 20260902113435 | 0 | 170 | 3.0 | 3.0 | 0.00 | 0.00 | 0.00 | 1025.6 | |
| 20260902112934 | 0 | 168 | 3.0 | 4.0 | 0.00 | 0.00 | 0.00 | 1025.5 | |
| 20260902112430 | 0 | 166 | 3.0 | 3.0 | 0.00 | 0.00 | 0.00 | 1025.3 | |
| 20260902111926 | 0 | 166 | 3.0 | 3.0 | 0.00 | 0.00 | 0.00 | 1025.4 | |
| 20260902111422 | 0 | 141 | 2.0 | 4.0 | 0.00 | 0.00 | 0.00 | 1025.1 | |
| 20260902110918 | 0 | 160 | 2.0 | 3.0 | 0.00 | 0.00 | 0.00 | 1025.3 | |
| 20260902110414 | 0 | 157 | 2.0 | 4.0 | 0.00 | 0.00 | 0.00 | 1025.1 | |
| 20260902105913 | 0 | 157 | 2.0 | 4.0 | 0.00 | 0.00 | 0.00 | 1025.0 | |
| 20260902105408 | 0 | 155 | 3.0 | 4.0 | 0.00 | 0.00 | 0.00 | 1025.1 | |
| 20260902104903 | 0 | 153 | 2.0 | 3.0 | 0.00 | 0.00 | 0.00 | 1025.4 | |
| 20260902104359 | 0 | 153 | 1.0 | 2.0 | 0.00 | 0.00 | 0.00 | 1025.3 | |
| 20260902103859 | 0 | 153 | 2.0 | 3.0 | 0.00 | 0.00 | 0.00 | 1025.4 | |
| 20260902103354 | 0 | 154 | 0.0 | 0.0 | 0.00 | 0.00 | 0.00 | 1025.4 | |
| 20260902102849 | 0 | 153 | 0.0 | 0.0 | 0.00 | 0.00 | 0.00 | 1025.5 | |
| 20260902102348 | 0 | 154 | 0.0 | 0.0 | 0.00 | 0.00 | 0.00 | 1025.5 | |
| 20260902101843 | 0 | 155 | 0.0 | 0.0 | 0.00 | 0.00 | 0.00 | 1025.4 | |
| 20260902101336 | 0 | 157 | 0.0 | 0.0 | 0.00 | 0.00 | 0.00 | 1025.5 | |
| 20260902100830 | 0 | 157 | 0.0 | 0.0 | 0.00 | 0.00 | 0.00 | 1025.5 | |
| 20260902100330 | 0 | 157 | 0.0 | 0.0 | 0.00 | 0.00 | 0.00 | 1025.5 | |
| 20260902095825 | 0 | 159 | 0.0 | 0.0 | 0.00 | 0.00 | 0.00 | 1025.6 | |
| 20260902095319 | 0 | 160 | 0.0 | 0.0 | 0.00 | 0.00 | 0.00 | 1025.5 | |
| 20260902094814 | 0 | 161 | 0.0 | 0.0 | 0.00 | 0.00 | 0.00 | 1025.7 | |
| 20260902094311 | 0 | 162 | 0.0 | 0.0 | 0.00 | 0.00 | 0.00 | 1025.8 | |
| 20260902093810 | 0 | 163 | 0.0 | 2.0 | 0.00 | 0.00 | 0.00 | 1025.5 | |
| 20260902093305 | 0 | 166 | 0.0 | 2.0 | 0.00 | 0.00 | 0.00 | 1025.4 | |
| 20260902092804 | 0 | 169 | 2.0 | 3.0 | 0.00 | 0.00 | 0.00 | 1025.4 | |
| 20260902092259 | 0 | 167 | 2.0 | 2.0 | 0.00 | 0.00 | 0.00 | 1025.4 | |
| 20260902091759 | 0 | 166 | 2.0 | 3.0 | 0.00 | 0.00 | 0.00 | 1025.3 | |
| 20260902091255 | 0 | 169 | 2.0 | 3.0 | 0.00 | 0.00 | 0.00 | 1025.5 | |
| 20260902090751 | 0 | 170 | 2.0 | 3.0 | 0.00 | 0.00 | 0.00 | 1025.5 | |
| 20260902090251 | 0 | 169 | 2.0 | 3.0 | 0.00 | 0.00 | 0.00 | 1025.5 | |
| 20260902085750 | 0 | 167 | 1.0 | 2.0 | 0.00 | 0.00 | 0.00 | 1025.5 | |
| 20260902085245 | 0 | 167 | 2.0 | 2.0 | 0.00 | 0.00 | 0.00 | 1025.4 | |
| 20260902084741 | 0 | 166 | 2.0 | 2.0 | 0.00 | 0.00 | 0.00 | 1025.1 | |
| 20260902084237 | 0 | 166 | 2.0 | 2.0 | 0.00 | 0.00 | 0.00 | 1025.4 | |
| 20260902083732 | 0 | 166 | 2.0 | 2.0 | 0.00 | 0.00 | 0.00 | 1025.6 | |
| 20260902083227 | 0 | 166 | 2.0 | 2.0 | 0.00 | 0.00 | 0.00 | 1025.5 | |
| 20260902082722 | 0 | 166 | 0.0 | 1.0 | 0.00 | 0.00 | 0.00 | 1025.5 | |
| 20260902082219 | 0 | 166 | 0.0 | 1.0 | 0.00 | 0.00 | 0.00 | 1025.4 | |
| 20260902081714 | 0 | 166 | 1.0 | 2.0 | 0.00 | 0.00 | 0.00 | 1025.5 | |
| 20260902081215 | 0 | 166 | 2.0 | 2.0 | 0.00 | 0.00 | 0.00 | 1025.4 | |
| 20260902080710 | 70 | 157 | 1.0 | 2.0 | 0.00 | 0.00 | 0.00 | 93 | 1025.5 |
| 20260902080207 | 0 | 154 | 1.0 | 2.0 | 0.00 | 0.00 | 0.00 | 1025.1 | |
| 20260902075706 | 70 | 166 | 0.0 | 0.0 | 0.00 | 0.00 | 0.00 | 94 | 1025.3 |
| 20260902075203 | 70 | 170 | 0.0 | 0.0 | 0.00 | 0.00 | 0.00 | 93 | 1025.3 |
| 20260902074703 | 70 | 172 | 1.0 | 2.0 | 0.00 | 0.00 | 0.00 | 93 | 1025.3 |
| 20260902074158 | 70 | 172 | 2.0 | 2.0 | 0.00 | 0.00 | 0.00 | 93 | 1025.3 |
| 20260902073653 | 70 | 171 | 2.0 | 2.0 | 0.00 | 0.00 | 0.00 | 93 | 1025.4 |
| 20260902073149 | 70 | 174 | 2.0 | 3.0 | 0.00 | 0.00 | 0.00 | 93 | 1025.3 |
| 20260902072645 | 70 | 172 | 0.0 | 0.0 | 0.00 | 0.00 | 0.00 | 93 | 1025.5 |
| 20260902072141 | 70 | 170 | 0.0 | 0.0 | 0.00 | 0.00 | 0.00 | 93 | 1025.0 |
| 20260902071637 | 70 | 171 | 0.0 | 0.0 | 0.00 | 0.00 | 0.00 | 93 | 1025.4 |
| 20260902071132 | 70 | 171 | 0.0 | 0.0 | 0.00 | 0.00 | 0.00 | 94 | 1025.3 |
| 20260902070628 | 71 | 171 | 0.0 | 0.0 | 0.00 | 0.00 | 0.00 | 94 | 1025.1 |
| 20260902070127 | 71 | 172 | 0.0 | 0.0 | 0.00 | 0.00 | 0.00 | 93 | 1025.4 |
| 20260902065626 | 70 | 171 | 0.0 | 0.0 | 0.00 | 0.00 | 0.00 | 94 | 1025.5 |
| 20260902065122 | 70 | 168 | 0.0 | 0.0 | 0.00 | 0.00 | 0.00 | 95 | 1025.1 |
| 20260902064618 | 70 | 166 | 0.0 | 0.0 | 0.00 | 0.00 | 0.00 | 96 | 1025.3 |
| 20260902064113 | 70 | 169 | 0.0 | 0.0 | 0.00 | 0.00 | 0.00 | 96 | 1025.1 |
| 20260902063608 | 70 | 181 | 0.0 | 0.0 | 0.00 | 0.00 | 0.00 | 95 | 1025.4 |
| 20260902063103 | 70 | 185 | 0.0 | 0.0 | 0.00 | 0.00 | 0.00 | 95 | 1025.3 |
| 20260902062602 | 71 | 190 | 0.0 | 0.0 | 0.00 | 0.00 | 0.00 | 94 | 1025.4 |
| 20260902062057 | 71 | 195 | 0.0 | 0.0 | 0.00 | 0.00 | 0.00 | 93 | 1025.3 |
| 20260902061556 | 71 | 206 | 0.0 | 0.0 | 0.00 | 0.00 | 0.00 | 93 | 1025.3 |
| 20260902061053 | 72 | 220 | 0.0 | 0.0 | 0.00 | 0.00 | 0.00 | 92 | 1025.4 |